Weather in Shchigry

Russia / Kurgan Oblast     55°59′13″N   66°37′12″E
temp.,
°C
wind,
m/s
gust,
m/s
humid.,
%
clouds,
%
prec.,
mm/h
press.,
hPa
HPBL,
m
12 may, wed
wed1223:00+14wnw333918 0.0 102639
02:00+12wnw334665 0.0 102626
05:00+11w46495 0.0 102681
08:00+17wnw4739100 0.0 1026342
11:00+21nw563645 0.0 1025931
14:00+23nnw6741100 0.0 10252304
17:00+21n6734100 0.0 10251841
20:00+17n334980 0.0 102544
13 may, thu
thu1323:00+13n225646 0.0 102612
02:00+12w225989 0.0 102611
05:00+12w476353 0.0 1025104
08:00+18wnw6115024 0.0 1025551
11:00+23nw684017 0.0 10241658
14:00+25nw793461 0.0 10232354
17:00+25nnw710337 0.0 10232626
20:00+19ne37575 0.0 1024153
14 may, fri
fri1423:00+16ne22695 0.0 102618
02:00+14e22760 0.0 102715
05:00+12e22755 0.0 102811
08:00+18sse21505 0.0 1028302
11:00+23sw22395 0.0 10271185
14:00+26w34355 0.0 10262357
17:00+27wsw4631100 0.0 10242664
20:00+23sw34445 0.0 102346
15 may, sat
sat1523:00+19sw47465 0.0 102393
02:00+19wsw4105010 0.0 1022200
05:00+16w466033 0.0 102290
08:00+22w46435 0.0 1022306
11:00+27wnw583130 0.0 10221705
14:00+29w68256 0.0 10202636
17:00+29w6726100 0.0 10202639
20:00+23wsw4745100 0.0 1019100
16 may, sun
sun1623:00+20wsw49515 0.0 1018122
02:00+18w411555 0.0 1018168
05:00+17w41061100 0.0 1018171
08:00+22wnw574714 0.0 1019429
11:00+26nw573915 0.0 10181275
14:00+29nw68335 0.0 10182216
17:00+29nw473042 0.0 10182630
20:00+25wnw11456 0.0 101812